Location: *
(37.5724°S, 58.0067°E)
Time: 10:19:25
(UTC+00:00)

Atlas Centaur 2 - Pass Details

Date: 26 September 2020
Orbit: 459 x 1310 km, 30.4° (Epoch: 29 October)

Event Time Altitude Azimuth Distance (km) Brightness Sun altitude
Rises 15:48:57 0° 296° (WNW) 3,915 6.3 -20.4°
Reaches altitude 10° 15:52:11 10° 303° (WNW) 2,823 5.4 -21.0°
Maximum altitude 15:58:19 37° 7° (N) 1,335 3.0 -22.1°
Enters shadow 15:59:03 36° 23° (NNE) 1,339 2.9 -22.3°
